Jump to content

Uploads by Fp1615

This special page shows all uploaded files.

File list
First pagePrevious pageNext pageLast page
Date Name Thumbnail Size Description Versions
14:45, 4 December 2017 Fp1615 freeenergyplot2.png (file) 59 KB   1
14:42, 4 December 2017 Fp1615 freeenergyplot.png (file) 59 KB   3
10:56, 4 December 2017 Fp1615 dos484848.jpg (file) 87 KB   1
10:56, 4 December 2017 Fp1615 dos323232.jpg (file) 87 KB   1
10:55, 4 December 2017 Fp1615 dos242424.jpg (file) 143 KB   2
10:55, 4 December 2017 Fp1615 dos161616.jpg (file) 135 KB   2
10:54, 4 December 2017 Fp1615 dos121212.jpg (file) 135 KB   2
10:54, 4 December 2017 Fo1615 dos888.jpg (file) 145 KB   1
15:14, 3 December 2017 Fp1615 coefficients2.png (file) 172 KB   3
14:47, 3 December 2017 Fp1615 coefficients.png (file) 156 KB   1
20:55, 2 December 2017 Fp1615 freetemp.png (file) 51 KB   1
20:49, 2 December 2017 Fp1615 dos404040-1.jpg (file) 89 KB   1
20:48, 2 December 2017 Fp1615 dos888.jpg (file) 145 KB   1
19:24, 2 December 2017 Fp1615 quasimd.png (file) 61 KB   1
09:36, 30 November 2017 Fp1615 dos444.jpg (file) 163 KB   1
09:34, 30 November 2017 Fp1615 dos111.jpg (file) 150 KB   2
09:33, 30 November 2017 Fp1615 dos333.jpg (file) 162 KB   2
09:22, 30 November 2017 Fp1615 dos 222.png (file) 153 KB   1
09:21, 30 November 2017 Fp1615 dos222.jpg (file) 153 KB   3
18:48, 29 November 2017 Fp1615 supercell.PNG (file) 354 KB   5
18:46, 29 November 2017 Fp1615 conventional.png (file) 354 KB   1
18:44, 29 November 2017 Fp1615 primitive.png (file) 92 KB   1
18:44, 29 November 2017 Fp1615 primitive.PNG (file) 92 KB   2
18:43, 29 November 2017 Fp1615 conventional.PNG (file) 293 KB   2
18:43, 29 November 2017 Fp1615 supercell.png (file) 293 KB   1
18:33, 29 November 2017 Fp1615 dos 111.png (file) 150 KB   1
18:11, 29 November 2017 Fp1615 phod.png (file) 430 KB   1
15:05, 5 May 2017 Fp1615 endo2.PNG (file) 91 KB   1
14:45, 5 May 2017 Fp1615 endo4.PNG (file) 84 KB   1
11:28, 5 May 2017 Fp1615 kinetic1.PNG (file) 44 KB   1
11:25, 5 May 2017 Fp1615 kinetic2b.PNG (file) 33 KB   1
11:21, 5 May 2017 Fp1615 kinetic2.PNG (file) 32 KB   1
11:10, 5 May 2017 Fp1615 ts3d.PNG (file) 74 KB   1
11:10, 5 May 2017 Fp1615 tscontour.PNG (file) 160 KB   1
17:06, 4 May 2017 Fp1615 momenta0801.PNG (file) 88 KB   1
17:06, 4 May 2017 Fp1615 momentum-25.PNG (file) 81 KB   2
17:05, 4 May 2017 Fp1615 momentum25.PNG (file) 90 KB   1
17:05, 4 May 2017 Fp1615 momentum-15.PNG (file) 81 KB   1
17:05, 4 May 2017 Fp1615 momentum15.PNG (file) 81 KB   1
17:04, 4 May 2017 Fp1615 momentum-05.PNG (file) 80 KB   1
17:04, 4 May 2017 Fp1615 momentum05.PNG (file) 80 KB   1
17:04, 4 May 2017 Fp1615 momentum-3.PNG (file) 93 KB   1
17:04, 4 May 2017 Fp1615 momentum3.PNG (file) 89 KB   1
17:03, 4 May 2017 Fp1615 momentum-2.PNG (file) 81 KB   1
17:03, 4 May 2017 Fp1615 momentum2.PNG (file) 81 KB   1
17:03, 4 May 2017 Fp1615 momentum-1.PNG (file) 80 KB   1
17:02, 4 May 2017 Fp1615 momentum1.PNG (file) 80 KB   1
17:02, 4 May 2017 Fp1615 momentum0.PNG (file) 80 KB   1
16:58, 4 May 2017 Fp1615 reactiveconditions2.PNG (file) 63 KB   1
16:58, 4 May 2017 Fp1615 reactiveconditions1.PNG (file) 85 KB   1
First pagePrevious pageNext pageLast page